Location: Red Bud (historical)
(37.7759°N, 88.4053°W)
Time: 23:00:06
(UTC+00:00)

Tiangong - Pass Details

Date: 23 June 2021
Orbit: 374 x 386 km, 41.5° (Epoch: 27 July)

Event Time Altitude Azimuth Distance (km) Brightness Sun altitude
Exits shadow 09:02:59 19° 279° (W) 969 2.8 -14.7°
Maximum altitude 09:04:57 50° 349° (N) 493 1.8 -14.4°
Drops below altitude 10° 09:08:01 10° 66° (ENE) 1,396 5.0 -14.0°
Sets 09:10:08 0° 72° (ENE) 2,253 6.1 -13.7°
